Find Starlink 6350

NORAD ID: 57226 Int'l Des: 2023-094 Owner: SPXS Country: US Constellation: starlink operational
LEOCIRCULAR

現在のビュー

3D地球を読み込み中...

About Starlink 6350

Starlink 6350 (NORAD 57226) is a starlink constellation satellite (v1.5) launched Jul 7, 2023 by SPXS of US. It operates in LEO, CIRCULAR orbit with a mass of 305.00 kg.

次回通過

Passes for default location (London). Set your location on the main map for personalized predictions.

高度履歴

Loading altitude history...

軌道要素

1 57226U 23094J 26230.26416121 -.00000080 00000-0 66065-5 0 9993
2 57226 43.0011 198.4513 0001293 269.6238 90.4466 15.27575948171826
Epoch: Aug 18, 2026 • Age: 18 hours

現在のステータス

高度 486.0 km
遠地点 / 近地点 N/A
速度 7.63 km/s
衛星直下点 38.34°N, 73.82°W
打ち上げ日 Jul 7, 2023
運用期間 3.1 years
タイプ internet

技術仕様

分類 Payload
質量 305.00 kg
乾燥質量 290.00 kg
総質量 305.00 kg
長さ 0.20 m
直径 2.80 m
スパン 9.00 m
形状 Box + pan
製造者 SPXS
バスタイプ Starlink
フェーズステータス In Orbit
所有者/国 SPXS/US

Most Searched